Location: NJAA Observatory
(40.6819°N, 74.8979°W)
Time: 08:21:34
(UTC-04:00)

Iridium 84 - Visible Passes

Search period start: 28 July 2014 00:00
Search period end: 07 August 2014 00:00
Orbit: 776 x 779 km, 86.4° (Epoch: 28 July)

Date Brightness Start Highest point End Pass type
(mag) Time Alt. Az. Time Alt. Az. Time Alt. Az.
28 Jul 5.5 20:51:27 10° N 20:56:41 78° E 21:01:53 10° S visible
28 Jul 8.4 22:34:58 10° WNW 22:36:38 12° WNW 22:38:17 10° W visible
29 Jul 7.9 21:59:35 10° NNW 22:03:28 22° W 22:07:20 10° SW visible
30 Jul 7.0 21:25:22 10° NNW 21:30:11 39° W 21:34:58 10° SSW visible
31 Jul 5.8 20:51:34 10° N 20:56:46 73° W 21:01:56 10° S visible
01 Aug 8.3 22:00:30 10° NW 22:03:21 15° WNW 22:06:12 10° WSW visible
02 Aug 7.7 21:25:49 10° NNW 21:30:08 27° W 21:34:27 10° SW visible
03 Aug 6.6 20:51:47 10° NNW 20:56:48 50° W 21:01:48 10° SSW visible
05 Aug 8.2 21:26:29 10° NW 21:30:03 19° W 21:33:38 10° WSW visible
06 Aug 7.3 20:52:07 10° NNW 20:56:48 34° W 21:01:27 10° SSW visible
